CFG6UK EDDF-LOWW

Flight info

Callsign CFG6UK
Flight time 1h 1m
Altitude 29000
Route SULUS4D/07C SULUS Z650 VEMUT DCT BUDEX BUDEX2W
Aircraft A320/M-SDE3FGHIRWY/LB1

Departure

Time 2026-05-01 13:56
Airport Frankfurt Main Airport (EDDF)

Arrival

Time 2026-05-01 14:58
Airport Vienna International Airport (LOWW)
Time Latitude Longitude Altitude Speed Heading
2026-05-01 13:23 50.04112 8.55826 361 ft 0 kts 159°
2026-05-01 13:50 50.04107 8.55830 358 ft 3 kts 159°
2026-05-01 13:50 50.04079 8.55846 356 ft 5 kts 159°
2026-05-01 13:50 50.04033 8.55853 350 ft 9 kts 204°
2026-05-01 13:51 50.04006 8.55771 352 ft 9 kts 249°
2026-05-01 13:51 50.03986 8.55687 349 ft 8 kts 249°
2026-05-01 13:51 50.03961 8.55583 356 ft 13 kts 250°
2026-05-01 13:51 50.03923 8.55425 352 ft 18 kts 250°
2026-05-01 13:52 50.03871 8.55210 356 ft 23 kts 250°
2026-05-01 13:52 50.03811 8.54958 349 ft 26 kts 249°
2026-05-01 13:52 50.03755 8.54724 348 ft 19 kts 250°
2026-05-01 13:52 50.03715 8.54555 347 ft 14 kts 249°
2026-05-01 13:53 50.03683 8.54422 348 ft 13 kts 249°
2026-05-01 13:53 50.03615 8.54304 343 ft 2 kts 160°
2026-05-01 13:53 50.03604 8.54311 349 ft 2 kts 158°
2026-05-01 13:54 50.03589 8.54321 347 ft 2 kts 158°
2026-05-01 13:54 50.03566 8.54334 340 ft 6 kts 159°
2026-05-01 13:54 50.03518 8.54363 348 ft 8 kts 159°
2026-05-01 13:54 50.03488 8.54411 345 ft 2 kts 82°
2026-05-01 13:55 50.03491 8.54422 344 ft 0 kts 69°
2026-05-01 13:55 50.03515 8.54518 347 ft 37 kts 70°
2026-05-01 13:56 50.03687 8.55246 347 ft 104 kts 70°
2026-05-01 13:56 50.04003 8.56561 373 ft 152 kts 72°
2026-05-01 13:56 50.04371 8.58085 1023 ft 150 kts 72°
2026-05-01 13:56 50.04735 8.59622 1676 ft 153 kts 73°
2026-05-01 13:57 50.05089 8.61212 2264 ft 161 kts 74°
2026-05-01 13:57 50.05471 8.62978 2605 ft 184 kts 74°
2026-05-01 13:57 50.05908 8.64978 2941 ft 206 kts 74°
2026-05-01 13:57 50.06392 8.67172 3544 ft 220 kts 73°
2026-05-01 13:58 50.06901 8.69460 4305 ft 226 kts 75°
2026-05-01 13:58 50.07170 8.71872 5026 ft 230 kts 97°
2026-05-01 13:58 50.06939 8.74423 5429 ft 252 kts 102°
2026-05-01 13:58 50.06620 8.77169 6125 ft 262 kts 103°
2026-05-01 13:59 50.06282 8.79989 6953 ft 268 kts 103°
2026-05-01 13:59 50.05937 8.82874 7803 ft 272 kts 103°
2026-05-01 13:59 50.05773 8.85825 8685 ft 278 kts 91°
2026-05-01 13:59 50.05825 8.88853 9556 ft 281 kts 91°
2026-05-01 14:00 50.05881 8.91916 10412 ft 284 kts 91°
2026-05-01 14:00 50.05938 8.95091 10822 ft 305 kts 91°
2026-05-01 14:00 50.05995 8.98512 11059 ft 328 kts 90°
2026-05-01 14:00 50.06053 9.02169 11406 ft 345 kts 90°
2026-05-01 14:01 50.06115 9.05933 12084 ft 350 kts 90°
2026-05-01 14:01 50.06177 9.09737 12840 ft 353 kts 90°
2026-05-01 14:01 50.06237 9.13571 13564 ft 357 kts 90°
2026-05-01 14:01 50.06297 9.17452 14298 ft 360 kts 90°
2026-05-01 14:02 50.06354 9.21305 14933 ft 363 kts 90°
2026-05-01 14:02 50.06410 9.25257 15576 ft 366 kts 90°
2026-05-01 14:02 50.06463 9.29231 16217 ft 369 kts 90°
2026-05-01 14:02 50.06515 9.33247 16841 ft 373 kts 90°
2026-05-01 14:03 50.06567 9.37303 17434 ft 377 kts 90°
2026-05-01 14:03 50.06620 9.41399 18071 ft 380 kts 90°
2026-05-01 14:03 50.06670 9.45533 18678 ft 384 kts 90°
2026-05-01 14:03 50.06719 9.49716 19206 ft 388 kts 90°
2026-05-01 14:04 50.06767 9.53922 19786 ft 390 kts 90°
2026-05-01 14:04 50.06813 9.58164 20324 ft 393 kts 90°
2026-05-01 14:04 50.06856 9.62434 20849 ft 396 kts 90°
2026-05-01 14:04 50.06896 9.66731 21421 ft 398 kts 89°
2026-05-01 14:05 50.06936 9.71048 21913 ft 401 kts 89°
2026-05-01 14:05 50.06980 9.75403 22419 ft 403 kts 89°
2026-05-01 14:05 50.07024 9.79779 22917 ft 406 kts 89°
2026-05-01 14:05 50.07067 9.84204 23342 ft 410 kts 89°
2026-05-01 14:06 50.07107 9.88656 23826 ft 412 kts 89°
2026-05-01 14:06 50.07143 9.93129 24228 ft 414 kts 89°
2026-05-01 14:06 50.07177 9.97627 24572 ft 417 kts 89°
2026-05-01 14:06 50.07207 10.02155 24967 ft 419 kts 89°
2026-05-01 14:07 50.07237 10.06702 25287 ft 422 kts 89°
2026-05-01 14:07 50.07266 10.11279 25650 ft 424 kts 89°
2026-05-01 14:07 50.07291 10.15827 25999 ft 426 kts 89°
2026-05-01 14:08 50.07336 10.25112 26665 ft 431 kts 89°
2026-05-01 14:08 50.07363 10.29790 26983 ft 433 kts 89°
2026-05-01 14:08 50.07392 10.34502 27281 ft 436 kts 88°
2026-05-01 14:08 50.07419 10.39227 27604 ft 437 kts 89°
2026-05-01 14:09 50.07443 10.43986 27881 ft 440 kts 89°
2026-05-01 14:09 50.07461 10.48750 28187 ft 442 kts 89°
2026-05-01 14:09 50.07478 10.53539 28468 ft 444 kts 89°
2026-05-01 14:09 50.07493 10.58359 28732 ft 446 kts 88°
2026-05-01 14:10 50.07506 10.63205 28995 ft 448 kts 89°
2026-05-01 14:10 50.07514 10.67998 29237 ft 450 kts 89°
2026-05-01 14:10 50.07271 10.72855 29357 ft 449 kts 98°
2026-05-01 14:11 50.05570 10.82183 29370 ft 448 kts 107°
2026-05-01 14:11 50.02641 10.95999 29369 ft 448 kts 107°
2026-05-01 14:12 50.00691 11.05183 29367 ft 447 kts 107°
2026-05-01 14:12 49.98739 11.14360 29369 ft 447 kts 107°
2026-05-01 14:13 49.97109 11.21965 29370 ft 446 kts 107°
2026-05-01 14:13 49.94835 11.32595 29367 ft 446 kts 107°
2026-05-01 14:14 49.92898 11.41737 29375 ft 446 kts 106°
2026-05-01 14:14 49.91136 11.50951 29386 ft 445 kts 103°
2026-05-01 14:15 49.89505 11.60203 29392 ft 444 kts 103°
2026-05-01 14:15 49.88015 11.69480 29396 ft 442 kts 96°
2026-05-01 14:16 49.87181 11.78917 29394 ft 442 kts 96°
2026-05-01 14:16 49.86340 11.88343 29408 ft 441 kts 96°
2026-05-01 14:17 49.85496 11.97762 29404 ft 441 kts 95°
2026-05-01 14:17 49.84655 12.07190 29397 ft 441 kts 96°
2026-05-01 14:18 49.83808 12.16543 29389 ft 441 kts 96°
2026-05-01 14:18 49.83082 12.24423 29373 ft 441 kts 96°
2026-05-01 14:19 49.82065 12.35359 29387 ft 441 kts 95°
2026-05-01 14:19 49.80853 12.44670 29385 ft 444 kts 107°
2026-05-01 14:20 49.76174 12.57142 29377 ft 450 kts 121°
2026-05-01 14:21 49.72614 12.65111 29381 ft 450 kts 121°
2026-05-01 14:21 49.69051 12.73077 29398 ft 451 kts 121°
2026-05-01 14:22 49.63711 12.84962 29375 ft 451 kts 121°
2026-05-01 14:22 49.60127 12.92896 29375 ft 451 kts 121°
2026-05-01 14:23 49.56540 13.00828 29369 ft 451 kts 121°
2026-05-01 14:23 49.52945 13.08752 29378 ft 451 kts 121°
2026-05-01 14:24 49.49335 13.16668 29377 ft 452 kts 121°
2026-05-01 14:24 49.45726 13.24574 29377 ft 452 kts 121°
2026-05-01 14:25 49.42101 13.32479 29380 ft 452 kts 122°
2026-05-01 14:25 49.38471 13.40374 29380 ft 452 kts 122°
2026-05-01 14:26 49.33043 13.52149 29387 ft 452 kts 121°
2026-05-01 14:27 49.29404 13.60023 29383 ft 453 kts 121°
2026-05-01 14:27 49.25757 13.67886 29382 ft 453 kts 121°
2026-05-01 14:28 49.20262 13.79651 29377 ft 453 kts 121°
2026-05-01 14:28 49.16595 13.87501 29404 ft 453 kts 121°
2026-05-01 14:29 49.12925 13.95336 29396 ft 453 kts 121°
2026-05-01 14:30 49.05561 14.10978 29381 ft 454 kts 121°
2026-05-01 14:31 49.00050 14.22626 29403 ft 454 kts 121°
2026-05-01 14:31 48.96354 14.30407 29396 ft 453 kts 121°
2026-05-01 14:32 48.92623 14.38136 29389 ft 454 kts 122°
2026-05-01 14:32 48.88761 14.45762 29386 ft 454 kts 123°
2026-05-01 14:33 48.84878 14.53320 29370 ft 454 kts 123°
2026-05-01 14:33 48.81019 14.60898 29401 ft 453 kts 122°
2026-05-01 14:34 48.77173 14.68479 29382 ft 453 kts 122°
2026-05-01 14:34 48.73972 14.74774 29365 ft 454 kts 122°
2026-05-01 14:34 48.72046 14.78549 28514 ft 454 kts 122°
2026-05-01 14:35 48.69445 14.83636 26802 ft 463 kts 123°
2026-05-01 14:35 48.67499 14.87414 26469 ft 447 kts 123°
2026-05-01 14:35 48.65594 14.91102 25702 ft 443 kts 123°
2026-05-01 14:35 48.63707 14.94759 24968 ft 440 kts 123°
2026-05-01 14:36 48.62435 14.97230 24457 ft 438 kts 122°
2026-05-01 14:36 48.60601 15.00878 23694 ft 432 kts 119°
2026-05-01 14:36 48.59125 15.04764 22970 ft 421 kts 110°
2026-05-01 14:36 48.58103 15.08786 22324 ft 411 kts 102°
2026-05-01 14:37 48.57384 15.12929 21693 ft 404 kts 100°
2026-05-01 14:37 48.56683 15.17021 21082 ft 400 kts 100°
2026-05-01 14:37 48.55983 15.21067 20494 ft 396 kts 100°
2026-05-01 14:37 48.55289 15.25068 19916 ft 393 kts 101°
2026-05-01 14:38 48.54599 15.29038 19355 ft 389 kts 101°
2026-05-01 14:38 48.53914 15.32967 18849 ft 386 kts 101°
2026-05-01 14:38 48.53234 15.36871 18256 ft 383 kts 101°
2026-05-01 14:38 48.52558 15.40736 17753 ft 378 kts 101°
2026-05-01 14:39 48.51989 15.44564 17259 ft 370 kts 94°
2026-05-01 14:39 48.51769 15.48443 17125 ft 374 kts 91°
2026-05-01 14:39 48.51563 15.52364 16966 ft 376 kts 91°
2026-05-01 14:39 48.51342 15.56291 16781 ft 375 kts 91°
2026-05-01 14:40 48.51113 15.60201 16599 ft 374 kts 91°
2026-05-01 14:40 48.50880 15.64106 16392 ft 373 kts 91°
2026-05-01 14:40 48.50650 15.67992 16138 ft 371 kts 91°
2026-05-01 14:40 48.50423 15.71859 15887 ft 370 kts 91°
2026-05-01 14:41 48.50200 15.75721 15650 ft 369 kts 91°
2026-05-01 14:41 48.49977 15.79565 15403 ft 367 kts 91°
2026-05-01 14:41 48.49756 15.83338 15161 ft 365 kts 91°
2026-05-01 14:41 48.49533 15.87144 14918 ft 364 kts 91°
2026-05-01 14:42 48.49308 15.90932 14675 ft 362 kts 91°
2026-05-01 14:42 48.49082 15.94708 14436 ft 361 kts 91°
2026-05-01 14:42 48.48853 15.98474 14197 ft 360 kts 91°
2026-05-01 14:42 48.48621 16.02226 13938 ft 359 kts 91°
2026-05-01 14:43 48.48388 16.05960 13666 ft 357 kts 91°
2026-05-01 14:43 48.48158 16.09683 13399 ft 356 kts 91°
2026-05-01 14:43 48.47960 16.13404 13136 ft 354 kts 90°
2026-05-01 14:43 48.47811 16.17104 12871 ft 353 kts 89°
2026-05-01 14:44 48.47686 16.20781 12642 ft 351 kts 89°
2026-05-01 14:44 48.47438 16.28110 12119 ft 349 kts 89°
2026-05-01 14:44 48.47305 16.31763 11872 ft 348 kts 89°
2026-05-01 14:45 48.47165 16.35394 11619 ft 347 kts 90°
2026-05-01 14:45 48.46869 16.42639 11123 ft 345 kts 90°
2026-05-01 14:45 48.46720 16.46240 10876 ft 344 kts 90°
2026-05-01 14:46 48.46379 16.49811 10626 ft 347 kts 102°
2026-05-01 14:46 48.43843 16.55942 10197 ft 344 kts 134°
2026-05-01 14:46 48.41910 16.57906 10064 ft 336 kts 149°
2026-05-01 14:47 48.39743 16.59066 9944 ft 326 kts 160°
2026-05-01 14:47 48.37604 16.59968 9811 ft 313 kts 160°
2026-05-01 14:47 48.35540 16.60832 9638 ft 304 kts 160°
2026-05-01 14:48 48.31501 16.62523 9113 ft 299 kts 160°
2026-05-01 14:48 48.29498 16.63368 8856 ft 298 kts 160°
2026-05-01 14:48 48.25519 16.65056 8351 ft 296 kts 161°
2026-05-01 14:49 48.21566 16.66721 7941 ft 294 kts 161°
2026-05-01 14:49 48.17632 16.68362 7550 ft 293 kts 162°
2026-05-01 14:50 48.14377 16.69722 7195 ft 291 kts 162°
2026-05-01 14:50 48.09860 16.71610 6322 ft 287 kts 163°
2026-05-01 14:51 48.07940 16.72412 5973 ft 286 kts 163°
2026-05-01 14:51 48.04132 16.74000 5410 ft 283 kts 163°
2026-05-01 14:52 48.00348 16.75571 4849 ft 282 kts 163°
2026-05-01 14:52 47.98464 16.76352 4565 ft 280 kts 164°
2026-05-01 14:52 47.94963 16.75502 4042 ft 258 kts 228°
2026-05-01 14:53 47.94133 16.73262 3800 ft 244 kts 258°
2026-05-01 14:53 47.93702 16.70849 3545 ft 239 kts 257°
2026-05-01 14:53 47.93337 16.68464 3280 ft 233 kts 271°
2026-05-01 14:53 47.93767 16.66261 3075 ft 221 kts 311°
2026-05-01 14:54 47.94988 16.64974 2997 ft 215 kts 344°
2026-05-01 14:54 47.96383 16.64382 3001 ft 201 kts 346°
2026-05-01 14:54 47.97697 16.63837 2904 ft 190 kts 346°
2026-05-01 14:54 47.98950 16.63312 2665 ft 185 kts 346°
2026-05-01 14:55 48.00163 16.62803 2391 ft 175 kts 346°
2026-05-01 14:55 48.01301 16.62324 2143 ft 165 kts 346°
2026-05-01 14:55 48.02359 16.61875 1929 ft 151 kts 345°
2026-05-01 14:55 48.03313 16.61472 1814 ft 138 kts 346°
2026-05-01 14:56 48.04226 16.61096 1606 ft 134 kts 345°
2026-05-01 14:56 48.05124 16.60716 1414 ft 133 kts 346°
2026-05-01 14:56 48.05996 16.60346 1254 ft 133 kts 345°
2026-05-01 14:56 48.06888 16.59969 1056 ft 134 kts 345°
2026-05-01 14:57 48.07777 16.59594 879 ft 133 kts 344°
2026-05-01 14:57 48.09500 16.58866 619 ft 109 kts 344°
2026-05-01 14:57 48.10067 16.58629 619 ft 62 kts 344°
2026-05-01 14:58 48.10409 16.58485 621 ft 45 kts 344°
2026-05-01 14:58 48.10664 16.58350 613 ft 32 kts 330°
2026-05-01 14:58 48.10808 16.58164 616 ft 22 kts 315°
2026-05-01 14:58 48.10916 16.58005 614 ft 21 kts 321°
2026-05-01 14:59 48.11053 16.57930 615 ft 17 kts 344°
2026-05-01 14:59 48.11130 16.57803 617 ft 18 kts 295°
2026-05-01 14:59 48.11188 16.57623 621 ft 20 kts 296°
2026-05-01 14:59 48.11252 16.57427 618 ft 22 kts 296°
2026-05-01 15:00 48.11394 16.56991 617 ft 25 kts 296°
2026-05-01 15:00 48.11471 16.56753 610 ft 26 kts 296°
2026-05-01 15:00 48.11551 16.56505 618 ft 27 kts 296°
2026-05-01 15:01 48.11636 16.56249 614 ft 28 kts 296°
2026-05-01 15:01 48.11713 16.56010 612 ft 22 kts 296°
2026-05-01 15:01 48.11778 16.55811 635 ft 22 kts 296°
2026-05-01 15:01 48.11841 16.55615 616 ft 16 kts 295°
2026-05-01 15:02 48.11881 16.55483 611 ft 11 kts 287°
2026-05-01 15:02 48.11919 16.55447 620 ft 11 kts
2026-05-01 15:02 48.12020 16.55514 609 ft 9 kts 27°
2026-05-01 15:02 48.12031 16.55567 615 ft 6 kts 112°
2026-05-01 15:03 48.12018 16.55607 621 ft 2 kts 116°
2026-05-01 15:03 48.12018 16.55609 621 ft 0 kts 116°